[[{"header":{"parameterUnit":"m.s-1","parameterCategory":1,"la1":30.2991,"la2":30.254,"lo1":-89.0895,"lo2":-89.0444,"dy":0.0017,"dx":0.0017,"nx":28,"ny":28,"refTime":"2023-06-18T21:00:00:Z","depth":0,"parameterNumber":2,"parameterNumberName":"U-component_of_WINDS"},"data":[0,0,0,0,0,0,0,0,0,0,0,0,0,0,0,0,0,0,0,0,0,0,0,0,0,0,0,0,0,0,0,0,0,0,0,0,0,0,0,0,0,0,0,0,0,0,0,0,0,0,0,0,0,0,0,0,0,0,-0.6586,-0.6588,0,-0.6823,-0.6825,-0.6828,-0.7006,-0.7007,-0.7009,-0.701,-0.725,-0.7255,-0.726,0,0,0,0,0,0,0,0,0,0,0,0,0,-0.6286,-0.6291,-0.6585,-0.6589,-0.6591,-0.6822,-0.6825,-0.6829,-0.7005,-0.7007,-0.7009,-0.7011,-0.7249,-0.7254,-0.726,0,0,0,0,0,0,0,0,0,0,0,0,0,-0.6459,-0.6292,-0.6585,-0.6707,-0.6721,-0.6821,-0.6826,-0.683,-0.7005,-0.7007,-0.701,-0.7012,-0.7247,-0.7254,-0.7261,-0.7258,0,0,-0.7284,-0.7287,0,0,0,0,0,0,0,0,-0.6449,-0.6469,-0.6687,-0.6699,-0.6714,-0.6887,-0.6808,-0.6973,-0.7004,-0.6897,-0.701,-0.7013,-0.7127,-0.7145,-0.7184,-0.727,-0.728,-0.7284,-0.7289,-0.7292,-0.7294,0,0,0,0,0,0,0,-0.6436,-0.646,-0.6679,-0.6689,-0.6706,-0.6751,-0.6778,-0.684,-0.6996,-0.6906,-0.692,-0.6946,-0.7135,-0.7176,-0.7191,-0.7283,-0.7284,-0.7291,-0.7295,-0.7298,-0.7381,-0.7378,0,0,0,0,0,0,-0.6406,-0.6449,-0.6672,-0.6686,-0.6585,-0.6754,-0.6784,-0.6829,-0.6996,-0.7023,-0.6943,-0.6953,-0.7162,-0.7182,-0.72,-0.7208,-0.7292,-0.7299,-0.7303,-0.7383,-0.738,-0.7378,0,0,0,0,0,0,-0.6398,-0.6424,-0.6662,-0.6572,-0.6605,-0.6757,-0.6805,-0.6832,-0.6874,-0.7023,-0.7052,-0.6956,-0.7165,-0.7189,-0.7243,-0.7218,-0.7302,-0.7309,-0.7385,-0.7382,-0.7379,-0.7222,0,0,0,0,0,0,-0.6389,-0.642,-0.642,-0.657,-0.661,-0.6701,-0.6804,-0.6835,-0.6886,-0.6901,-0.7043,-0.7069,-0.7169,-0.7231,-0.725,-0.723,-0.7314,-0.7388,-0.7384,-0.738,-0.723,-0.7214,-0.72,0,0,0,0,0,-0.6378,-0.6366,-0.6419,-0.6445,-0.6613,-0.6699,-0.6721,-0.6837,-0.6883,-0.6885,-0.6982,-0.7065,-0.7219,-0.7235,-0.7258,-0.7239,-0.739,-0.7385,-0.738,-0.7237,-0.7217,-0.72,0,0,0,0,0,0,-0.6208,-0.6388,-0.6449,-0.6485,-0.6576,-0.6729,-0.6734,-0.6812,-0.6891,-0.6901,-0.7041,-0.7072,-0.711,-0.7181,-0.7196,-0.7247,-0.7315,-0.7314,-0.7198,-0.7181,-0.7166,-0.7146,-0.7321,0,0,0,0,0,-0.6175,-0.623,-0.6384,-0.6402,-0.6444,-0.6581,-0.6623,-0.6704,-0.6803,-0.6842,-0.6943,-0.7035,-0.7105,-0.7147,-0.7219,-0.7243,-0.7276,-0.7242,-0.7226,-0.7213,-0.721,-0.7228,-0.7214,-0.7361,-0.7361,-0.7361,0,0,-0.6106,-0.6212,-0.6237,-0.637,-0.645,-0.6503,-0.6612,-0.6664,-0.6705,-0.685,-0.6906,-0.6984,-0.7096,-0.7134,-0.7156,-0.7194,-0.7178,-0.7207,-0.7195,-0.72,-0.7221,-0.7207,-0.7195,-0.7358,-0.7359,-0.7359,0,0,-0.6009,-0.6094,-0.6118,-0.6196,-0.6316,-0.6408,-0.6414,-0.6556,-0.6613,-0.6673,-0.6783,-0.6834,-0.6951,-0.7027,-0.708,-0.7015,-0.7094,-0.7035,-0.6954,-0.697,-0.6959,-0.6949,-0.6924,-0.6914,-0.7032,-0.7031,-0.7031,0,-0.5908,-0.5994,-0.612,-0.6166,-0.6221,-0.6358,-0.6383,-0.6453,-0.6589,-0.6624,-0.6665,-0.6816,-0.6901,-0.6959,-0.6943,-0.6983,-0.6993,-0.7017,-0.695,-0.6942,-0.6935,-0.6913,-0.6903,-0.7023,-0.7024,-0.7025,-0.7026,0,-0.5864,-0.5922,-0.5927,-0.6056,-0.6113,-0.6148,-0.628,-0.6322,-0.6399,-0.6487,-0.6546,-0.6654,-0.675,-0.6771,-0.6847,-0.684,-0.686,-0.6924,-0.6995,-0.691,-0.6892,-0.6885,-0.7012,-0.7015,-0.7017,-0.7019,0,0,-0.5661,-0.5863,-0.5863,-0.5924,-0.6068,-0.6115,-0.6157,-0.6253,-0.6285,-0.6376,-0.6414,-0.6512,-0.6572,-0.6633,-0.672,-0.6734,-0.6674,-0.6797,-0.6801,-0.6768,-0.6672,-0.6621,-0.6609,-0.6729,-0.6728,-0.6727,-0.6662,0,-0.5585,-0.5668,-0.5784,-0.5828,-0.5883,-0.6015,-0.6052,-0.6144,-0.6227,-0.6287,-0.638,-0.6445,-0.6521,-0.6559,-0.6579,-0.6676,-0.6656,-0.6683,-0.6764,-0.6765,-0.6729,-0.66,-0.6546,-0.6479,-0.6656,-0.6655,-0.6654,0,-0.5505,-0.559,-0.5639,-0.578,-0.5808,-0.5838,-0.5936,-0.5992,-0.6099,-0.6159,-0.6228,-0.6322,-0.6374,-0.644,-0.6513,-0.6528,-0.6569,-0.6623,-0.6623,-0.6632,-0.6702,-0.6604,-0.6461,-0.6449,-0.6644,-0.6645,-0.6646,0,-0.5351,-0.5477,-0.5524,-0.5572,-0.5738,-0.5756,-0.5826,-0.5937,-0.5987,-0.6073,-0.6108,-0.6198,-0.6246,-0.6314,-0.6431,-0.6468,-0.649,-0.6566,-0.654,-0.6537,-0.6536,-0.6534,-0.6395,-0.6566,-0.6566,-0.6566,-0.6567,0,-0.5251,-0.5275,-0.5456,-0.5484,-0.5516,-0.5651,-0.5679,-0.5761,-0.5858,-0.5905,-0.6025,-0.6066,-0.6218,-0.6277,-0.6369,-0.6414,-0.6436,-0.6485,-0.6508,-0.6473,-0.6466,-0.6499,-0.6505,-0.6564,-0.6564,-0.6565,-0.6565,0,-0.5082,-0.5204,-0.5263,-0.5416,-0.5456,-0.5472,-0.5603,-0.5636,-0.5728,-0.5785,-0.5806,-0.595,-0.6025,-0.6149,-0.6261,-0.6323,-0.635,-0.6392,-0.6313,-0.6327,-0.6294,-0.6294,-0.6169,-0.6159,-0.6337,-0.6335,-0.6334,0,-0.5009,-0.5031,-0.5187,-0.5227,-0.5293,-0.5356,-0.5409,-0.5544,-0.5594,-0.572,-0.5736,-0.5822,-0.5897,-0.6012,-0.6126,-0.6212,-0.6255,-0.6205,-0.6268,-0.6231,-0.6252,-0.6247,-0.625,-0.6189,-0.6186,-0.6184,-0.6182,0,-0.4865,-0.4925,-0.4997,-0.509,-0.515,-0.523,-0.5316,-0.5342,-0.5496,-0.5546,-0.5626,-0.5684,-0.5799,-0.5882,-0.5985,-0.6057,-0.6144,-0.6163,-0.6161,-0.6122,-0.6075,-0.6099,-0.6271,-0.6164,-0.6166,-0.6167,-0.6168,-0.6169,-0.4741,-0.4767,-0.4881,-0.4958,-0.5037,-0.5115,-0.5153,-0.5251,-0.5319,-0.5424,-0.55,-0.5574,-0.5683,-0.5831,-0.5898,-0.5958,-0.5997,-0.5995,-0.5994,-0.599,-0.5976,-0.6068,-0.5978,-0.5978,-0.5979,-0.598,-0.598,0,-0.4602,-0.4683,-0.4752,-0.4869,-0.4929,-0.501,-0.5109,-0.5154,-0.5218,-0.5313,-0.5385,-0.5476,-0.5558,-0.568,-0.5771,-0.5795,-0.5838,-0.5814,-0.5812,-0.5827,-0.5937,-0.5928,-0.5779,-0.5779,-0.5779,-0.5779,-0.5779,-0.5779,-0.4537,-0.4585,-0.4659,-0.4748,-0.483,-0.4903,-0.4953,-0.5026,-0.5103,-0.5199,-0.5268,-0.5348,-0.5454,-0.5554,-0.5633,-0.5667,-0.5693,-0.5657,-0.5702,-0.5801,-0.582,-0.5837,-0.583,-0.5662,-0.5662,-0.5589,-0.5588,-0.5587]},{"header":{"parameterUnit":"m.s-1","parameterCategory":1,"la1":30.2991,"la2":30.254,"lo1":-89.0895,"lo2":-89.0444,"dy":0.0017,"dx":0.0017,"nx":28,"ny":28,"refTime":"2023-06-18T21:00:00:Z","depth":0,"parameterNumber":3,"parameterNumberName":"V-component_of_WINDS"},"data":[0,0,0,0,0,0,0,0,0,0,0,0,0,0,0,0,0,0,0,0,0,0,0,0,0,0,0,0,0,0,0,0,0,0,0,0,0,0,0,0,0,0,0,0,0,0,0,0,0,0,0,0,0,0,0,0,0,0,6.4477,6.4477,0,6.4422,6.4421,6.4421,6.4353,6.4352,6.4351,6.435,6.4291,6.429,6.429,0,0,0,0,0,0,0,0,0,0,0,0,0,6.4523,6.4523,6.4477,6.4476,6.4476,6.4422,6.4421,6.442,6.4353,6.4352,6.4351,6.4349,6.4291,6.429,6.4289,0,0,0,0,0,0,0,0,0,0,0,0,0,6.4489,6.4522,6.4477,6.4436,6.4432,6.4422,6.4421,6.442,6.4353,6.4352,6.435,6.4349,6.4291,6.429,6.4289,6.4316,0,0,6.4287,6.4286,0,0,0,0,0,0,0,0,6.4491,6.4487,6.4443,6.4439,6.4434,6.4393,6.4416,6.4385,6.4354,6.4383,6.435,6.4348,6.4326,6.4322,6.4315,6.4313,6.431,6.4287,6.4286,6.4286,6.4285,0,0,0,0,0,0,0,6.4494,6.4489,6.4455,6.4442,6.4437,6.4419,6.4413,6.441,6.4364,6.438,6.4375,6.437,6.4323,6.4316,6.4313,6.4309,6.4287,6.4286,6.4285,6.4285,6.4326,6.4327,0,0,0,0,0,0,6.4502,6.4492,6.4457,6.4453,6.4459,6.442,6.4413,6.4407,6.4364,6.4356,6.4371,6.4367,6.4318,6.4314,6.4311,6.4338,6.4286,6.4285,6.4284,6.4324,6.4326,6.4328,0,0,0,0,0,0,6.4504,6.45,6.4459,6.4471,6.4465,6.4421,6.4416,6.4407,6.44,6.4357,6.4348,6.4372,6.4317,6.4312,6.4315,6.4335,6.4284,6.4284,6.4322,6.4325,6.4327,6.4393,0,0,0,0,0,0,6.4505,6.4501,6.451,6.4472,6.4464,6.4465,6.4417,6.4407,6.4399,6.4393,6.4356,6.4348,6.4315,6.4317,6.4314,6.4333,6.4283,6.432,6.4324,6.4326,6.4389,6.4397,6.4405,0,0,0,0,0,6.4507,6.4531,6.4511,6.4507,6.4476,6.4466,6.4462,6.4424,6.4401,6.441,6.4382,6.4349,6.4334,6.4318,6.4314,6.4333,6.4319,6.4323,6.4326,6.4385,6.4396,6.4404,0,0,0,0,0,0,6.4571,6.4525,6.4503,6.4515,6.4495,6.4455,6.4465,6.4437,6.4422,6.4417,6.4371,6.4363,6.4371,6.4353,6.4335,6.4356,6.4321,6.4325,6.4367,6.4377,6.4385,6.4388,6.4282,0,0,0,0,0,6.4587,6.4584,6.4543,6.4558,6.4549,6.4509,6.4504,6.4477,6.4454,6.4445,6.4418,6.4397,6.4387,6.4381,6.437,6.4387,6.4377,6.4398,6.4406,6.4413,6.4415,6.4422,6.443,6.434,6.434,6.434,0,0,6.4619,6.4593,6.4594,6.457,6.4551,6.4548,6.4502,6.4501,6.4498,6.4445,6.4446,6.4425,6.4399,6.4409,6.4412,6.4393,6.4438,6.4417,6.4423,6.4421,6.4427,6.4435,6.4443,6.4342,6.4342,6.4342,0,0,6.4675,6.4656,6.4666,6.4649,6.4622,6.4596,6.4598,6.4563,6.4547,6.4548,6.4508,6.4504,6.4488,6.4471,6.446,6.4512,6.4481,6.451,6.4551,6.4558,6.4565,6.4571,6.4589,6.4596,6.4513,6.4513,6.4513,0,6.4718,6.4712,6.4674,6.4675,6.4666,6.4619,6.4628,6.4613,6.4584,6.4579,6.4559,6.4539,6.4518,6.4523,6.4536,6.4529,6.453,6.4513,6.4567,6.4573,6.4578,6.4594,6.4601,6.4517,6.4517,6.4516,6.4516,0,6.4765,6.4763,6.4774,6.4747,6.4739,6.4745,6.4707,6.4704,6.4679,6.4654,6.4656,6.4629,6.4612,6.4612,6.4586,6.4613,6.4602,6.4576,6.454,6.4591,6.4605,6.4611,6.4522,6.4521,6.452,6.4519,0,0,6.4858,6.4812,6.4817,6.4804,6.4773,6.4769,6.4773,6.4757,6.4754,6.4737,6.4738,6.4727,6.4702,6.469,6.4663,6.467,6.4712,6.4642,6.4641,6.4655,6.4739,6.4758,6.4766,6.4692,6.4693,6.4694,6.4741,0,6.4907,6.491,6.4877,6.4889,6.4886,6.4842,6.4845,6.4826,6.4804,6.4798,6.4773,6.4766,6.4735,6.4727,6.4732,6.4706,6.4728,6.4702,6.4691,6.4691,6.4697,6.4773,6.4793,6.4838,6.4746,6.4747,6.4748,0,6.4963,6.495,6.4962,6.493,6.4928,6.4931,6.4914,6.4909,6.4886,6.487,6.4858,6.4827,6.4828,6.4796,6.4796,6.478,6.4774,6.476,6.4761,6.4757,6.4721,6.477,6.4852,6.4858,6.4757,6.4756,6.4755,0,6.5028,6.5013,6.5018,6.5009,6.4973,6.4976,6.4961,6.4937,6.493,6.4915,6.491,6.4896,6.4887,6.4877,6.4843,6.4823,6.4847,6.4812,6.4832,6.4833,6.4837,6.4837,6.4918,6.4837,6.4837,6.4837,6.4836,0,6.5085,6.5093,6.5047,6.505,6.5059,6.5021,6.503,6.5011,6.4991,6.4989,6.4951,6.495,6.4907,6.4901,6.4875,6.4878,6.4875,6.4861,6.4854,6.4864,6.4865,6.4857,6.4852,6.4838,6.4838,6.4838,6.4837,0,6.5157,6.5126,6.5129,6.5095,6.5086,6.5094,6.5065,6.5066,6.5043,6.5041,6.5039,6.5002,6.4994,6.496,6.4943,6.4925,6.4937,6.4924,6.4945,6.4939,6.4961,6.4959,6.5038,6.5046,6.4962,6.4963,6.4964,0,6.5194,6.52,6.5167,6.5164,6.515,6.5145,6.5138,6.5102,6.5096,6.5072,6.5076,6.5065,6.5054,6.5042,6.5013,6.5,6.4985,6.5014,6.4983,6.4992,6.4984,6.4983,6.4983,6.502,6.5021,6.5022,6.5023,0,6.5263,6.5248,6.5239,6.5226,6.5219,6.5206,6.5191,6.5191,6.515,6.5146,6.5137,6.5128,6.5112,6.5101,6.5084,6.5067,6.5038,6.5034,6.5037,6.5046,6.5057,6.505,6.4961,6.5031,6.503,6.503,6.5029,6.5029,6.5317,6.532,6.5298,6.529,6.5276,6.5263,6.5263,6.524,6.5233,6.5217,6.5196,6.519,6.5168,6.5142,6.5129,6.5123,6.5107,6.5112,6.5113,6.5115,6.5119,6.506,6.512,6.512,6.5119,6.5119,6.5119,0,6.5382,6.5367,6.536,6.5341,6.5335,6.531,6.5293,6.5289,6.5284,6.5267,6.5258,6.5248,6.5238,6.5209,6.5196,6.5197,6.5183,6.5195,6.5193,6.519,6.5135,6.5133,6.5206,6.5206,6.5206,6.5206,6.5206,6.5206,6.5415,6.542,6.5402,6.5399,6.5383,6.5377,6.537,6.5358,6.5344,6.5335,6.5327,6.5309,6.5287,6.5272,6.5262,6.5254,6.525,6.5265,6.5253,6.5202,6.5193,6.5185,6.5183,6.5265,6.5265,6.5307,6.5308,6.5308]}]]